星链-11334 (STARLINK-11334)

导读 | 豆包AI

STARLINK-11334是SpaceX星链互联网卫星星座的成员,由美国于2024年9月25日发射。作为低轨卫星,它加入了庞大的星链组网,为全球提供高速低延迟的宽带互联网服务,覆盖偏远地区,也为军事通信提供支持,进一步扩充了星链星座的服务规模与覆盖能力。

Basic Information
目录编号:
61250
目录名称:
STARLINK-11334
国际标识:
2024-175H
轨道中心:
EARTH
卫星名称:
星链-11334
卫星全名:
星链-11334 (STARLINK-11334)
卫星状态:
已陨落 最后检测时间 2025-10-06
发射日期:
2024-09-25 UTC
国别 :
美国 (US)
星等 :
--
Orbit Information
数据来源 国际轨道数据
星历时间: 2025-10-06T05:19:28+0800
轨道信息已过期160天
半长轴: 6594.845km
偏心率: 0.0004994
轨道倾角: 53.133°
近地点辐角 246.730°
升交点赤经 92.670°
平近点角 113.321°
近地点: 213.416km
远地点: 220.004km
周期: 88.831分钟
每日圈数: 16.21048
Detailed Information
固有亮度:
5
最大亮度:
2.5
卫星平台:
Starlink V1.0
覆盖范围:
全球
运营商:
太空探索技术公司
运营商所在国:
美国
制造商(研发单位):
太空探索技术公司
制造商所在国:
美国
使用方式:
暂无
Satellite Introduction
Starlink 计划是 SpaceX 推出的全球卫星互联网项目,通过发射低轨道卫星,为全球尤其是偏远地区提供高速、低延迟的互联网服务。自 2019 年起,Starlink 已部署数千颗卫星,旨在缩小全球数字鸿沟,推动互联网普及。该项目还为军事、航空等行业提供通信支持,带来广泛经济效益。